Probability
0 0 0 0 0 0 0 0 0 0 0 0 0 1 2 1 0 0 0 0 0 0 1 2 2 3 4 5 4 3 3 3 3 1 0 0 0 0 0 0 0 0 0
0 0 0 0 0 0 0 0 0 0 0 0 0 1 2 1 0 0 0 0 0 0 0 1 1 2 4 4 4 3 3 3 3 2 1 0 0 0 0 0 0 0 0
0 0 0 0 0 0 0 0 0 0 0 0 0 0 1 1 0 0 0 0 0 0 0 0 1 1 3 4 4 3 3 4 3 3 1 0 0 0 0 0 0 0 0
0 0 0 0 0 0 0 0 0 0 0 0 0 0 0 0 0 0 0 0 1 0 0 0 1 1 2 4 3 3 3 3 3 3 2 1 0 0 0 0 0 0 0
1 0 0 0 0 0 0 0 0 0 0 0 0 0 0 0 0 0 0 0 0 0 0 0 0 0 1 3 3 2 2 1 1 2 3 2 1 0 0 0 0 0 0
3 2 1 0 0 0 0 0 0 0 0 0 0 0 0 0 0 0 0 0 0 0 0 0 0 0 1 2 2 2 1 0 0 1 2 2 1 0 0 0 0 0 0
6 5 3 2 1 2 1 1 1 0 0 0 0 0 0 0 0 0 0 0 0 0 0 0 0 0 0 1 1 1 1 0 0 1 1 2 1 0 0 0 0 0 0
5 6 6 5 4 3 2 1 1 0 0 0 0 0 0 0 0 0 0 0 0 0 0 0 0 0 0 0 0 0 0 0 1 1 1 1 1 1 1 0 0 0 0
7 7 6 6 5 4 3 2 1 0 0 0 0 0 0 0 0 0 0 0 0 0 0 0 0 0 0 0 0 0 0 0 1 2 2 1 2 2 2 1 1 1 1
11 10 7 5 4 3 3 2 1 0 0 0 0 0 0 0 0 0 0 0 0 0 0 0 0 0 0 0 0 0 0 0 0 1 1 2 3 4 3 2 1 2 2
10 10 8 6 4 3 2 2 1 0 1 1 1 0 0 0 0 0 0 0 0 0 0 0 0 0 0 0 0 0 0 0 0 0 1 2 4 5 5 3 2 2 3
7 7 7 5 5 4 2 1 0 1 2 2 2 1 0 0 1 1 1 0 0 0 0 0 0 0 0 0 0 0 0 0 0 0 0 1 3 4 5 4 3 3 3
5 5 5 5 4 3 1 0 1 2 3 4 3 2 1 1 2 2 2 1 0 0 0 0 0 0 0 0 0 0 0 0 0 0 0 0 1 1 3 3 3 2 2
4 4 4 3 3 2 1 1 2 3 4 4 3 3 2 2 3 3 3 1 0 0 0 0 0 0 0 0 0 0 0 0 0 0 0 0 0 0 1 1 1 1 1
3 3 2 2 2 3 3 3 3 3 3 2 1 2 1 1 2 3 2 2 1 1 1 0 0 0 0 0 0 0 0 0 0 0 0 0 0 0 0 0 0 0 0
2 1 1 2 3 4 5 5 3 2 1 0 0 0 0 0 1 2 1 1 2 2 2 1 0 0 0 0 0 0 0 0 0 0 0 0 0 0 0 0 0 0 0
2 2 2 3 4 5 6 6 5 3 1 1 0 0 0 0 0 0 0 1 2 3 2 1 0 0 0 0 0 0 0 0 0 0 0 0 0 0 0 0 0 0 0
5 4 3 3 4 4 5 7 7 6 4 2 1 1 1 0 0 0 0 1 2 3 2 1 0 0 0 0 0 0 0 0 0 0 0 0 0 0 0 0 0 0 0
7 6 5 5 4 4 5 7 9 8 6 4 3 3 3 2 1 0 0 0 1 2 1 0 0 0 0 0 0 0 0 0 0 0 0 0 0 0 0 0 0 0 0
8 7 7 7 7 7 6 8 8 7 5 3 3 4 5 4 2 1 0 0 0 0 0 0 0 0 0 0 0 0 0 0 0 0 0 0 0 0 0 0 0 0 0
7 7 8 9 10 9 7 5 4 4 3 3 3 4 4 4 2 2 1 1 0 0 0 0 0 0 0 0 0 0 0 0 0 0 0 0 0 0 0 0 0 0 0
8 8 9 10 8 7 4 2 1 1 2 3 3 4 5 5 4 4 3 1 0 0 0 0 0 0 0 0 0 0 0 0 0 0 0 0 0 0 0 0 0 0 0
12 10 9 8 6 4 3 1 0 1 2 3 4 5 6 7 6 5 4 1 0 0 0 0 0 0 0 0 0 0 0 0 0 0 0 0 0 0 0 1 0 0 0
16 12 10 9 7 4 3 1 0 1 2 2 3 4 6 6 6 4 3 2 1 0 0 0 0 0 0 0 0 0 0 0 0 0 0 0 0 0 0 1 1 0 0
19 17 14 12 9 6 3 1 1 1 1 1 1 2 4 4 3 2 1 1 1 0 0 0 0 0 0 0 0 0 0 0 0 0 0 0 0 0 0 0 1 0 0
21 21 18 14 11 8 4 2 2 3 2 1 0 1 2 2 1 0 0 1 0 0 0 0 0 0 0 0 0 0 0 0 0 0 0 0 0 0 0 0 1 0 0
Wind_Speed
2 2 1 1 1 1 1 1 1 1 1 1 2 4 4 4 5 4 4 10 10 10 11 11 10 10 10 9 9 9 9 9 8 8 8 8 9 9 10 10 9 9 9
3 2 2 1 1 1 1 1 1 1 1 2 2 3 4 5 5 4 3 6 9 9 9 10 10 10 10 9 9 8 8 8 8 8 8 8 8 8 9 9 9 9 9
4 3 2 1 1 1 1 1 1 2 2 2 3 3 3 4 5 4 4 3 4 8 9 9 9 9 9 9 9 9 9 8 8 8 8 8 8 8 9 9 9 9 8
3 3 2 1 1 1 1 1 1 2 2 2 2 2 2 3 4 4 3 3 3 3 6 10 9 8 9 9 9 9 9 9 9 9 8 8 8 8 8 9 9 9 8
3 3 2 1 1 1 1 1 1 1 2 1 1 2 1 2 3 3 3 3 3 3 3 6 8 8 8 9 9 9 9 8 8 8 9 9 8 8 8 8 8 8 9
3 3 2 1 1 1 1 1 1 1 2 2 2 2 1 1 2 3 3 3 3 4 3 3 3 5 7 7 8 8 8 8 8 9 9 9 9 8 8 8 8 8 8
3 3 2 1 1 1 1 1 2 2 1 1 2 2 2 2 1 1 1 2 3 3 3 3 2 2 2 4 5 6 6 7 7 8 8 8 8 8 9 9 8 8 8
2 3 3 2 2 1 1 1 2 2 1 1 2 2 1 2 2 0 1 1 1 1 2 3 2 2 1 1 2 5 6 6 6 6 7 7 7 7 7 8 8 8 8
2 2 2 2 2 2 1 1 2 3 1 0 2 3 3 2 1 2 1 1 1 1 1 1 2 2 2 1 1 2 4 4 4 5 5 4 4 6 7 7 7 7 8
1 2 2 2 2 1 1 1 1 2 2 1 0 1 2 3 3 0 2 1 1 1 1 1 1 1 2 1 1 2 2 2 3 4 4 4 4 4 4 5 6 7 7
1 1 2 2 2 1 1 1 1 1 2 2 1 1 1 1 2 3 1 1 1 1 1 1 1 1 2 2 1 2 4 3 3 3 2 2 3 4 4 4 5 6 6
0 1 1 1 1 1 1 1 1 1 1 2 1 1 2 2 2 3 2 1 1 0 0 1 1 1 1 1 2 4 4 4 3 3 3 2 2 2 2 2 2 3 5
0 1 1 1 1 1 1 1 1 0 1 1 1 1 1 2 2 2 3 2 1 1 0 0 1 2 2 1 1 4 4 5 4 4 3 3 3 2 2 2 2 1 1
1 0 1 1 1 1 1 1 1 0 1 1 0 0 0 0 1 2 3 3 2 1 1 1 1 1 2 2 2 3 2 5 5 4 4 4 4 4 4 4 4 3 3
1 1 1 1 1 1 1 2 1 0 1 0 0 0 0 0 0 1 2 3 4 3 2 2 1 1 2 2 3 2 2 4 5 5 5 5 5 5 5 5 5 5 5
1 1 1 1 1 1 1 2 1 1 1 1 0 0 1 1 0 0 1 1 1 3 2 1 1 2 2 3 4 3 2 5 5 6 5 5 6 6 6 5 5 4 4
2 2 1 2 2 2 1 2 1 1 1 1 1 1 1 1 1 1 1 1 1 3 3 1 1 2 3 3 3 2 2 2 2 5 5 5 5 5 5 5 5 5 5
2 2 2 2 2 2 1 1 1 0 0 1 1 1 1 1 1 1 1 1 1 2 3 3 1 1 2 3 3 3 2 2 2 3 4 4 4 4 4 4 4 4 4
2 3 3 2 2 2 1 1 1 1 1 0 1 1 1 1 1 1 1 2 1 2 3 3 2 1 2 2 3 2 2 1 2 2 3 2 3 3 3 3 3 3 3
3 2 2 2 2 2 2 1 2 2 2 2 2 2 1 1 1 1 1 1 2 2 2 3 2 2 1 1 2 2 1 0 0 1 1 2 2 2 2 2 2 2 2
3 2 2 2 2 2 1 2 2 2 2 2 3 2 3 3 3 2 2 2 3 2 2 2 2 2 1 2 2 2 2 1 0 0 1 0 0 1 1 1 1 1 1
2 3 3 3 2 2 3 4 4 2 2 2 2 2 2 3 4 4 5 5 4 3 3 2 2 2 2 2 2 3 2 2 0 1 1 1 1 1 1 1 1 1 1
3 3 3 3 3 3 5 5 5 3 3 2 1 1 2 3 3 3 5 6 5 5 4 3 3 2 2 3 3 3 2 2 2 2 2 1 1 1 2 2 3 3 2
3 3 2 3 2 3 5 5 4 4 3 3 2 2 2 2 2 3 3 4 4 3 2 2 2 1 1 2 3 4 4 2 1 0 2 1 1 1 1 1 2 3 3
3 3 2 2 2 2 4 4 4 3 3 3 2 3 3 3 4 5 4 3 3 3 4 5 4 3 4 3 3 3 3 3 1 1 0 1 0 0 1 1 1 2 2
4 3 3 2 2 2 3 4 4 3 3 2 2 3 5 4 5 5 4 3 3 1 2 4 4 4 4 4 3 3 3 3 1 1 1 1 1 1 1 1 1 1 1
Wind_Direction
116 116 126 116 120 127 134 133 135 132 107 110 129 141 140 141 146 150 160 168 171 173 176 179 180 181 180 181 183 185 188 190 191 193 197 200 200 198 199 199 199 198 200
128 123 119 116 117 134 145 146 143 116 90 98 110 126 139 143 145 150 154 167 170 171 176 179 180 182 183 184 185 186 189 191 194 194 195 198 199 201 201 200 201 203 204
141 137 128 130 154 152 137 112 90 87 94 98 103 111 122 136 140 150 157 165 175 179 179 181 186 188 190 193 195 192 192 194 194 196 198 201 202 203 203 203 204 206 206
139 127 132 148 164 136 121 117 100 82 77 92 108 117 120 129 137 143 152 163 173 184 192 191 193 196 199 199 201 201 200 200 199 200 202 205 208 207 206 210 211 209 209
140 133 137 150 142 126 128 145 111 127 125 116 116 113 114 126 139 147 148 158 169 178 189 197 198 203 206 204 204 205 206 204 202 203 207 210 211 210 210 214 214 212 211
144 131 124 122 118 110 105 124 129 126 140 146 115 86 80 110 135 154 170 168 171 179 184 192 199 215 213 210 208 208 207 209 211 211 213 214 214 212 211 214 216 216 215
123 123 132 130 131 138 166 156 139 127 128 121 88 57 27 48 107 178 170 159 171 181 173 184 183 199 217 214 208 205 208 212 210 209 212 214 217 217 217 218 220 220 218
137 139 140 150 154 139 128 144 144 139 163 141 128 109 46 1 353 46 132 160 177 161 161 178 180 189 198 193 198 212 216 215 213 212 214 215 219 220 217 216 214 212 212
156 155 151 154 158 154 170 186 153 147 162 196 150 146 152 198 272 344 19 110 131 124 137 150 168 179 183 176 189 207 202 202 208 212 210 210 215 220 219 218 216 216 216
148 152 155 155 158 147 158 200 154 148 146 185 252 170 165 160 156 169 350 8 90 113 142 150 137 146 146 152 136 128 161 176 194 208 204 203 208 209 213 220 222 219 216
170 165 153 145 153 155 174 175 149 155 159 172 183 177 138 131 145 148 186 307 21 35 127 137 137 137 144 147 161 137 136 141 145 155 167 192 200 203 213 221 227 226 222
288 270 156 155 165 161 181 185 179 174 179 171 171 167 165 169 182 160 168 193 201 279 133 133 142 147 150 154 160 131 128 124 126 128 128 132 140 156 178 200 223 234 233
356 308 93 123 140 151 155 144 127 142 148 145 175 198 192 197 173 155 151 171 185 233 196 169 178 171 160 139 142 131 121 116 108 106 105 102 96 93 90 81 70 47 350
214 246 97 88 95 120 127 117 103 148 115 147 178 177 157 239 174 167 166 160 164 225 227 218 154 156 139 132 133 125 120 120 115 108 102 97 90 81 77 72 64 51 39
173 147 111 101 102 113 113 112 93 57 64 87 276 253 101 300 59 183 171 169 168 187 220 206 173 161 146 138 144 122 119 126 124 116 109 102 94 87 84 79 73 65 56
164 133 107 112 114 106 102 101 85 54 75 357 330 6 335 338 28 74 162 185 161 164 181 197 171 159 151 141 141 133 134 130 123 116 111 106 98 91 88 84 76 71 68
153 138 127 106 101 102 101 102 92 63 60 355 341 16 330 357 31 22 69 95 108 126 141 155 90 111 115 122 115 112 112 110 114 117 118 113 105 98 90 84 78 70 68
135 124 109 100 104 99 97 110 122 26 67 3 340 36 350 21 31 12 61 88 113 132 136 138 109 96 103 135 119 120 127 133 130 126 123 119 116 111 103 94 85 75 70
113 97 96 105 101 95 93 102 120 90 78 33 3 83 36 57 41 32 70 78 78 98 107 124 122 88 83 117 111 115 109 95 148 139 139 136 124 117 111 104 96 87 79
113 107 110 117 114 106 91 79 94 84 63 41 39 63 57 75 98 102 90 95 99 91 96 109 110 99 97 113 119 122 104 59 145 127 120 120 125 126 123 122 117 109 102
135 131 114 103 97 100 80 88 91 90 74 59 48 52 60 75 81 95 102 111 112 108 104 106 110 102 112 130 169 168 146 135 349 120 97 122 69 330 301 268 180 150 132
133 115 110 109 100 95 82 87 96 76 69 69 46 25 50 57 60 68 80 89 104 121 136 128 135 151 189 178 162 157 140 127 242 256 142 266 189 246 264 250 223 192 169
120 107 104 105 104 89 90 91 94 92 70 49 46 38 56 59 70 66 64 61 58 65 104 146 153 187 185 193 164 158 159 164 199 206 150 239 262 251 254 240 215 218 219
121 119 112 114 110 93 97 93 88 85 81 66 56 58 76 52 75 100 91 72 60 49 57 101 135 163 162 179 172 170 174 155 75 74 129 159 238 252 267 260 224 220 223
129 125 113 119 117 98 95 105 108 92 81 54 42 57 75 67 57 91 99 87 61 30 46 70 81 73 68 78 121 120 116 112 95 291 45 131 230 294 316 298 270 214 217
135 125 110 112 118 114 100 111 122 111 96 74 43 40 62 73 67 81 102 100 84 34 41 42 40 33 35 41 72 122 150 145 143 236 256 143 183 115 340 305 293 259 243